Flag for Cambodia Weather past 2 weeks in Phnom Penh, Cambodia

Now
90 °F

Passing clouds.


Feels Like: 96 °F
Forecast: 78 / 96 °F
Wind: 9 mph from Southwest

Location: Phnom-Penh / Pochentong

Current Time: May 28, 2015 at 10:03:46 AM

Latest Report: May 28, 2015 at 9:30 AM


Visibility: N/A

Pressure: 29.74 "Hg

Humidity: 55%

Dew point: 72 °F

Location of Phnom PenhLocation

Historic Weather in Phnom Penh — Graph

°F

Phnom Penh temperature yesterday

Maximum temperature yesterday: 99 °F (at 2:00 PM)
Minimum temperature yesterday: 79 °F (at 6:00 AM)
Average temperature yesterday: 89 °F

Past Weeks' High & Low Weather Summary

 TemperatureHumidityPressure
High102 °F (May 18, 2:30 PM)100% (May 25, 4:00 PM)29.89 "Hg (May 25, 4:00 PM)
Low79 °F (May 25, 3:00 PM)31% (May 14, 4:00 PM)29.62 "Hg (May 17, 3:30 PM)
Average90 °F60%29.75 "Hg
* Reported May 13 8:00 AM — May 28 8:30 AM, Phnom Penh, Weather by CustomWeather, © 2015

Note: Actual official high and low records may vary slightly from our data, if they occured in-between our weather recording intervals... More about our weather records

Advertising

Phnom Penh weather history for previous 24 hours

 ConditionsComfort  
Time TempWeatherWind HumidityBarometerVisibility
8:30 AM
Thu, May 28
90 °FSunny.7 mph59%29.77 "Hg10 mi
8:00 AM88 °FSunny.8 mph62%29.74 "Hg10 mi
7:30 AM86 °FSunny.7 mph70%29.74 "Hg10 mi
7:00 AM84 °FSunny.6 mph74%29.74 "Hg10 mi
6:30 AM82 °FClear.5 mph79%29.74 "Hg6 mi
6:00 AM82 °FPassing clouds.5 mph79%29.74 "Hg6 mi
1:00 AM82 °FClear.3 mph79%29.74 "Hg6 mi
12:30 AM82 °FClear.3 mph79%29.74 "Hg6 mi
12:00 AM84 °FClear.2 mph74%29.74 "Hg6 mi
11:30 PM
Wed, May 27
84 °FClear.2 mph74%29.74 "Hg6 mi
11:00 PM86 °FClear.5 mph70%29.77 "Hg6 mi
10:30 PM84 °FClear.1 mph74%29.77 "Hg6 mi
10:00 PM84 °FClear.1 mph74%29.77 "Hg6 mi
9:30 PM84 °FClear.1 mph74%29.77 "Hg6 mi
9:00 PM84 °FClear.2 mph74%29.74 "Hg6 mi
8:30 PM84 °FWarm.No wind74%29.74 "Hg6 mi
8:00 PM84 °FPassing clouds.1 mph74%29.74 "Hg6 mi
7:30 PM86 °FPassing clouds.5 mph70%29.74 "Hg6 mi
7:00 PM86 °FPassing clouds.8 mph70%29.74 "Hg6 mi
6:30 PM91 °FPassing clouds.8 mph56%29.68 "HgN/A
6:00 PM93 °FScattered clouds.12 mph53%29.68 "HgN/A
5:30 PM95 °FScattered clouds.12 mph47%29.65 "HgN/A
5:00 PM95 °FScattered clouds.8 mph47%29.65 "HgN/A
4:30 PM97 °FScattered clouds.9 mph44%29.65 "HgN/A
4:00 PM97 °FScattered clouds.1 mph44%29.65 "HgN/A
3:30 PM99 °FScattered clouds.9 mph39%29.65 "HgN/A
2:30 PM99 °FScattered clouds.7 mph37%29.68 "HgN/A
2:00 PM99 °FScattered clouds.10 mph37%29.71 "HgN/A
1:30 PM97 °FScattered clouds.9 mph42%29.71 "HgN/A
1:00 PM95 °FScattered clouds.7 mph47%29.74 "HgN/A
12:30 PM95 °FScattered clouds.7 mph47%29.74 "HgN/A
12:00 PM95 °FScattered clouds.8 mph47%29.77 "HgN/A
11:30 AM95 °FScattered clouds.8 mph50%29.77 "HgN/A
10:30 AM93 °FScattered clouds.9 mph49%29.80 "HgN/A
10:00 AM91 °FScattered clouds.8 mph56%29.80 "HgN/A
Weather by CustomWeather, © 2015

See weather overviewHow to use our weather pages